Regional Weather Roundup
Issued by NWS Huntsville, AL

Home | Current Version | Previous Version | Text Only | Print | Product List | Glossary On
Versions: 1 2 3 4 5 6 7 8 9 10 11 12 13 14 15 16 17 18 19 20 21 22 23 24 25 26 27 28 29 30 31 32 33 34 35 36 37 38 39 40 41 42 43 44 45 46 47 48 49 50
000
ASUS44 KHUN 071310
RWRHUN

WEATHER ROUNDUP FOR THE TENNESSEE VALLEY
NATIONAL WEATHER SERVICE HUNTSVILLE AL
700 AM CST SUN FEB 07 2016

ALZ001>004-071400-
NORTHWEST ALABAMA

CITY           SKY/WX    TMP DP  RH WIND       PRES   REMARKS
COURTLAND HCN    N/A     25 N/A N/A CALM        N/A
RUSSELLVILLE     N/A     21 N/A N/A MISG        N/A
SHOALS AIRPORT CLEAR     27  24  89 CALM      30.26R
SHOALS TVA RES   N/A     27 N/A N/A MISG        N/A
$$

ALZ005>007-016-071400-
NORTH CENTRAL ALABAMA

CITY           SKY/WX    TMP DP  RH WIND       PRES   REMARKS
DECATUR AP     CLEAR     26  25  96 CALM      30.25R
HUNTSVILLE AP  CLEAR     28  25  88 SE3       30.24R
HUN NWS/UAH      N/A     28  26  89 CALM        N/A
MERIDIANVILLE  CLEAR     27  23  86 CALM      30.24R
REDSTONE ARSN  CLEAR     28  27  96 SW2       30.24R
VINEMONT AP    FAIR      26  21  82 CALM      30.25R
$$

ALZ008>010-071400-
NORTHEAST ALABAMA

CITY           SKY/WX    TMP DP  RH WIND       PRES   REMARKS
ALBERTVILLE    CLEAR     30  28  93 CALM      30.21R
FORT PAYNE     CLEAR     23  19  86 CALM      30.22S
SCOTTSBORO AP  CLEAR     27  25  93 CALM      30.25R
SCOTTSBORO HCN   N/A     25 N/A N/A MISG        N/A
VALLEY HEAD      N/A     23 N/A N/A MISG        N/A
$$

TNZ076-096-097-071400-
SOUTHEASTERN MIDDLE TENNESSEE

CITY           SKY/WX    TMP DP  RH WIND       PRES   REMARKS
TULLAHOMA      CLEAR     23  21  93 CALM      30.22S
WINCHESTER     CLEAR     23  21  93 CALM      30.23S
$$

...SURROUNDING SITES...

CITY           SKY/WX    TMP DP  RH WIND       PRES   REMARKS
ATLANTA        PTCLDY    31  20  63 NW12      30.15R WCI  22
ANNISTON       CLEAR     27  23  85 CALM      30.23R
BIRMINGHAM     CLEAR     28  24  85 CALM      30.26R
CHATTANOOGA    CLEAR     27  24  89 CALM      30.22S
DALTON         NOT AVBL
GADSDEN        CLEAR     24  22  91 CALM      30.24R
GOLDEN TRNGL   CLEAR     28  19  69 CALM      30.26R
HALEYVILLE     FAIR      23  21  92 CALM      30.25R
JACKSON TN     CLEAR     22  20  92 CALM      30.23S
MEMPHIS        PTCLDY    32  23  69 CALM      30.23F
NASHVILLE      PTCLDY    28  22  78 S3        30.22R
ROME           CLEAR     25  22  88 CALM      30.20R
TUPELO         CLEAR     27  24  89 CALM      30.26R
TUSCALOOSA     CLEAR     28  24  85 CALM      30.28R
$$

...GULF COAST WEATHER...

CITY           SKY/WX    TMP DP  RH WIND       PRES   REMARKS
GULFPORT       CLEAR     30  26  85 CALM      30.29R
PASCAGOULA     PTCLDY    29  28  96 CALM      30.29S
MOBILE         PTCLDY    31  25  78 NW3       30.28S
GULF SHORES    SUNNY     34  26  74 NW3       30.28R
PENSACOLA      PTCLDY    36  26  67 W5        30.26  WCI  32
DESTIN         CLEAR     41  26  55 N10       30.23R
PANAMA CITY    CLEAR     40  28  61 N7        30.19R
APPALACHICOLA  CLEAR     36  34  92 NW6       30.18R WCI  31
$$




USA.gov is the U.S. government's official web portal to all federal, state and local government web resources and services.